QPF
0.00 0.00 0.00 0.00 0.00 0.00 0.00 0.00 0.00 0.00 0.00 0.00 0.00 0.00 0.00 0.00 0.00 0.00 0.00 0.00 0.00 0.00 0.00 0.00 0.00 0.00 0.00 0.00 0.00 0.00 0.00 0.00 0.00 0.00 0.00 0.00 0.00 0.00 0.00 0.00 0.00 0.00 0.00 0.00
0.00 0.00 0.00 0.00 0.00 0.00 0.00 0.00 0.00 0.00 0.00 0.00 0.00 0.00 0.00 0.00 0.00 0.00 0.00 0.00 0.00 0.00 0.00 0.00 0.00 0.00 0.00 0.00 0.00 0.00 0.00 0.00 0.00 0.00 0.00 0.00 0.00 0.00 0.00 0.00 0.00 0.00 0.00 0.00
0.00 0.00 0.00 0.00 0.00 0.00 0.00 0.00 0.00 0.00 0.00 0.00 0.00 0.00 0.00 0.00 0.00 0.00 0.00 0.00 0.00 0.00 0.00 0.00 0.00 0.00 0.00 0.00 0.00 0.00 0.00 0.00 0.00 0.00 0.00 0.00 0.00 0.00 0.00 0.00 0.00 0.00 0.00 0.00
0.00 0.00 0.00 0.00 0.00 0.00 0.00 0.00 0.00 0.00 0.00 0.00 0.00 0.00 0.00 0.00 0.00 0.00 0.00 0.00 0.00 0.00 0.00 0.00 0.00 0.00 0.00 0.00 0.00 0.00 0.00 0.00 0.00 0.00 0.00 0.00 0.00 0.00 0.00 0.00 0.00 0.00 0.00 0.00
0.00 0.00 0.00 0.00 0.00 0.00 0.00 0.00 0.00 0.00 0.00 0.00 0.00 0.00 0.00 0.00 0.00 0.00 0.00 0.00 0.00 0.00 0.00 0.00 0.00 0.00 0.00 0.00 0.00 0.00 0.00 0.00 0.00 0.00 0.00 0.00 0.00 0.00 0.00 0.00 0.02 0.02 0.00 0.00
0.00 0.00 0.00 0.00 0.00 0.00 0.00 0.00 0.00 0.00 0.00 0.00 0.00 0.00 0.00 0.00 0.00 0.00 0.00 0.00 0.00 0.00 0.00 0.00 0.00 0.00 0.00 0.00 0.00 0.00 0.00 0.00 0.00 0.00 0.00 0.00 0.00 0.00 0.00 0.00 0.01 0.00 0.00 0.00
0.00 0.00 0.00 0.00 0.00 0.00 0.00 0.00 0.00 0.00 0.00 0.00 0.00 0.00 0.00 0.00 0.00 0.00 0.00 0.00 0.00 0.00 0.00 0.00 0.00 0.00 0.00 0.00 0.00 0.00 0.00 0.00 0.00 0.00 0.00 0.00 0.00 0.00 0.02 0.05 0.02 0.01 0.00 0.00
0.00 0.00 0.00 0.00 0.00 0.00 0.00 0.00 0.00 0.00 0.00 0.00 0.00 0.00 0.00 0.00 0.00 0.00 0.00 0.00 0.00 0.00 0.00 0.00 0.00 0.00 0.00 0.00 0.00 0.00 0.00 0.00 0.00 0.00 0.00 0.00 0.00 0.00 0.00 0.00 0.00 0.00 0.00 0.00
0.00 0.00 0.00 0.00 0.00 0.00 0.00 0.00 0.00 0.00 0.00 0.00 0.00 0.00 0.00 0.00 0.00 0.00 0.00 0.00 0.00 0.00 0.00 0.00 0.00 0.00 0.00 0.00 0.00 0.00 0.00 0.00 0.00 0.00 0.00 0.00 0.00 0.00 0.00 0.00 0.00 0.00 0.00 0.00
0.00 0.00 0.00 0.00 0.00 0.00 0.00 0.00 0.00 0.00 0.00 0.00 0.00 0.00 0.00 0.00 0.00 0.00 0.00 0.00 0.00 0.00 0.00 0.00 0.00 0.00 0.00 0.00 0.00 0.00 0.00 0.01 0.00 0.00 0.00 0.00 0.00 0.00 0.00 0.00 0.00 0.00 0.00 0.00
0.00 0.00 0.00 0.00 0.00 0.00 0.00 0.00 0.00 0.00 0.00 0.00 0.00 0.00 0.00 0.00 0.00 0.00 0.00 0.00 0.00 0.00 0.00 0.00 0.00 0.00 0.00 0.00 0.00 0.00 0.00 0.00 0.00 0.00 0.00 0.00 0.00 0.00 0.00 0.00 0.00 0.00 0.00 0.00
0.00 0.00 0.00 0.00 0.00 0.00 0.00 0.00 0.00 0.00 0.00 0.00 0.00 0.00 0.00 0.00 0.00 0.00 0.00 0.00 0.00 0.00 0.00 0.00 0.00 0.00 0.00 0.00 0.00 0.00 0.00 0.00 0.00 0.00 0.00 0.00 0.00 0.00 0.00 0.00 0.00 0.00 0.00 0.00
0.00 0.00 0.00 0.00 0.00 0.00 0.00 0.00 0.00 0.00 0.00 0.00 0.00 0.00 0.00 0.00 0.00 0.00 0.00 0.00 0.00 0.00 0.00 0.00 0.00 0.00 0.00 0.00 0.00 0.00 0.00 0.00 0.00 0.00 0.00 0.00 0.00 0.00 0.00 0.00 0.00 0.00 0.00 0.00
0.00 0.00 0.00 0.00 0.00 0.00 0.00 0.00 0.00 0.00 0.00 0.00 0.00 0.00 0.00 0.00 0.00 0.00 0.00 0.00 0.00 0.00 0.00 0.00 0.00 0.00 0.00 0.00 0.00 0.00 0.00 0.00 0.00 0.00 0.00 0.00 0.00 0.00 0.00 0.00 0.00 0.00 0.00 0.00
0.00 0.00 0.00 0.00 0.00 0.00 0.00 0.00 0.00 0.00 0.00 0.00 0.00 0.00 0.00 0.00 0.00 0.00 0.00 0.00 0.00 0.00 0.00 0.00 0.00 0.00 0.00 0.00 0.00 0.00 0.00 0.00 0.00 0.00 0.00 0.00 0.00 0.00 0.00 0.00 0.00 0.00 0.00 0.00
0.00 0.00 0.00 0.00 0.00 0.00 0.00 0.00 0.00 0.00 0.00 0.00 0.00 0.00 0.00 0.00 0.00 0.00 0.00 0.00 0.00 0.00 0.00 0.00 0.00 0.00 0.00 0.00 0.00 0.00 0.00 0.00 0.00 0.00 0.00 0.00 0.00 0.00 0.00 0.00 0.00 0.00 0.00 0.00
0.00 0.00 0.00 0.00 0.00 0.00 0.00 0.00 0.00 0.00 0.00 0.00 0.00 0.00 0.00 0.00 0.00 0.00 0.00 0.00 0.00 0.00 0.00 0.00 0.00 0.00 0.00 0.00 0.00 0.00 0.00 0.00 0.00 0.00 0.00 0.00 0.00 0.00 0.00 0.00 0.00 0.00 0.00 0.00
0.00 0.00 0.00 0.00 0.00 0.00 0.00 0.00 0.00 0.00 0.00 0.00 0.00 0.00 0.00 0.00 0.00 0.00 0.00 0.00 0.00 0.00 0.00 0.00 0.00 0.00 0.00 0.00 0.00 0.00 0.00 0.00 0.00 0.00 0.00 0.00 0.00 0.00 0.00 0.00 0.00 0.01 0.02 0.02
0.00 0.00 0.00 0.00 0.00 0.00 0.00 0.00 0.00 0.00 0.00 0.00 0.00 0.00 0.00 0.00 0.00 0.00 0.00 0.00 0.00 0.00 0.00 0.00 0.00 0.00 0.00 0.00 0.00 0.00 0.00 0.00 0.00 0.00 0.00 0.00 0.00 0.00 0.00 0.00 0.00 0.01 0.04 0.03
0.00 0.00 0.00 0.00 0.00 0.00 0.00 0.00 0.00 0.00 0.00 0.00 0.00 0.00 0.00 0.00 0.00 0.00 0.00 0.00 0.00 0.00 0.00 0.00 0.00 0.00 0.00 0.00 0.00 0.00 0.00 0.00 0.00 0.00 0.00 0.00 0.00 0.00 0.00 0.00 0.00 0.00 0.01 0.01
0.00 0.00 0.00 0.00 0.00 0.00 0.00 0.00 0.00 0.00 0.00 0.00 0.00 0.00 0.00 0.00 0.00 0.00 0.00 0.00 0.00 0.00 0.00 0.00 0.00 0.00 0.00 0.00 0.00 0.00 0.00 0.00 0.00 0.00 0.00 0.00 0.00 0.00 0.00 0.00 0.00 0.01 0.01 0.01
0.00 0.00 0.00 0.00 0.00 0.00 0.00 0.00 0.00 0.00 0.00 0.00 0.00 0.00 0.00 0.00 0.00 0.00 0.00 0.00 0.00 0.00 0.00 0.00 0.00 0.00 0.00 0.00 0.00 0.00 0.00 0.00 0.00 0.00 0.00 0.00 0.00 0.00 0.00 0.00 0.01 0.01 0.01 0.01
0.01 0.00 0.00 0.00 0.00 0.00 0.00 0.00 0.00 0.00 0.00 0.00 0.00 0.00 0.00 0.00 0.00 0.00 0.00 0.00 0.00 0.00 0.00 0.00 0.00 0.00 0.00 0.00 0.00 0.00 0.00 0.00 0.00 0.00 0.00 0.00 0.00 0.00 0.00 0.00 0.01 0.01 0.01 0.01
0.00 0.02 0.03 0.01 0.00 0.00 0.01 0.00 0.00 0.00 0.00 0.00 0.00 0.00 0.00 0.00 0.00 0.00 0.00 0.00 0.00 0.00 0.00 0.00 0.00 0.00 0.00 0.00 0.00 0.00 0.00 0.00 0.00 0.00 0.00 0.00 0.00 0.00 0.00 0.00 0.00 0.00 0.01 0.01
0.00 0.01 0.02 0.01 0.00 0.01 0.00 0.00 0.01 0.01 0.01 0.00 0.00 0.00 0.00 0.00 0.00 0.00 0.00 0.00 0.00 0.00 0.00 0.00 0.00 0.00 0.00 0.00 0.00 0.00 0.00 0.00 0.00 0.00 0.00 0.00 0.00 0.00 0.00 0.00 0.00 0.00 0.00 0.00
0.00 0.00 0.00 0.00 0.00 0.02 0.00 0.01 0.00 0.00 0.00 0.00 0.00 0.00 0.00 0.00 0.00 0.00 0.00 0.00 0.00 0.00 0.00 0.00 0.01 0.03 0.02 0.00 0.00 0.00 0.00 0.00 0.00 0.00 0.00 0.00 0.00 0.00 0.00 0.00 0.00 0.00 0.00 0.00
MSLP
1007.30 1006.77 1005.75 1005.27 1005.31 1005.58 1006.11 1006.29 1006.20 1006.35 1007.29 1007.64 1007.21 1006.96 1006.90 1007.38 1007.95 1008.13 1008.58 1008.86 1008.89 1009.12 1009.67 1010.26 1011.15 1011.98 1012.78 1013.67 1014.67 1015.51 1016.12 1016.70 1017.15 1017.28 1017.44 1017.55 1017.49 1017.89 1018.60 1018.20 1018.46 1018.80 1018.89 1019.17
1006.65 1005.92 1005.25 1005.33 1005.78 1006.14 1005.93 1005.82 1005.61 1005.97 1007.07 1007.23 1006.30 1005.99 1005.75 1006.10 1006.65 1007.10 1007.52 1007.84 1008.59 1008.29 1008.96 1009.61 1010.37 1011.19 1012.08 1013.05 1014.10 1015.07 1015.78 1016.46 1016.83 1017.06 1017.22 1017.20 1017.33 1017.39 1017.62 1017.79 1018.21 1018.58 1018.79 1019.34
1005.55 1004.93 1005.28 1005.56 1005.70 1005.79 1005.40 1005.23 1005.33 1005.70 1006.02 1006.32 1006.00 1004.38 1004.28 1004.75 1005.48 1006.17 1006.53 1006.94 1007.14 1007.55 1007.92 1008.90 1009.70 1010.39 1011.36 1012.29 1013.41 1014.41 1015.25 1016.06 1016.49 1016.71 1017.18 1017.52 1017.49 1017.45 1017.70 1017.70 1017.98 1018.15 1018.58 1018.80
1005.28 1005.00 1005.44 1005.42 1005.25 1005.26 1004.64 1004.75 1005.36 1005.40 1005.48 1004.35 1005.20 1003.37 1003.03 1003.33 1004.00 1004.77 1005.25 1005.75 1006.03 1006.52 1007.24 1007.80 1008.83 1009.71 1010.53 1011.55 1012.73 1013.83 1014.84 1015.60 1016.23 1016.70 1016.78 1016.96 1016.84 1016.77 1016.81 1017.13 1017.26 1017.44 1018.27 1018.48
1004.62 1004.75 1004.88 1004.87 1004.66 1004.75 1004.46 1005.11 1005.15 1004.98 1004.66 1004.22 1003.41 1003.29 1001.91 1002.44 1002.45 1002.67 1003.37 1004.06 1004.74 1005.59 1006.30 1006.90 1007.85 1008.82 1009.80 1010.94 1011.98 1013.06 1014.33 1015.24 1015.66 1016.44 1016.57 1016.80 1016.74 1016.38 1016.50 1016.63 1016.85 1017.69 1017.96 1018.18
1004.58 1004.89 1004.93 1004.17 1004.07 1004.50 1004.65 1004.95 1004.88 1004.69 1003.90 1003.10 1002.04 1002.43 1001.07 1000.60 1001.13 1001.27 1001.76 1002.49 1003.47 1004.46 1005.36 1006.25 1007.15 1008.10 1009.24 1010.40 1011.42 1012.42 1013.71 1014.65 1015.31 1015.93 1016.55 1016.74 1016.49 1016.34 1016.12 1016.50 1016.56 1016.75 1017.26 1017.72
1003.72 1003.67 1004.04 1004.06 1003.64 1004.25 1004.56 1003.86 1003.16 1002.80 1002.19 1001.52 1002.10 1002.01 1000.70 1000.39 1000.35 1000.52 1000.85 1001.59 1002.49 1003.50 1004.72 1005.52 1006.43 1007.37 1008.51 1009.62 1010.91 1011.85 1013.07 1013.90 1014.59 1015.27 1015.81 1016.36 1016.59 1016.64 1016.58 1016.84 1016.59 1015.86 1016.09 1016.61
1002.14 1001.59 1002.33 1002.98 1003.00 1002.73 1003.44 1003.04 1002.09 1001.51 1001.18 1000.95 1001.83 1000.97 999.93 999.84 999.85 1000.10 1000.58 1001.12 1001.87 1002.67 1003.57 1004.78 1005.89 1007.05 1007.88 1008.88 1010.22 1011.23 1012.23 1013.11 1014.25 1014.57 1015.10 1015.67 1016.13 1016.19 1016.15 1016.19 1015.86 1015.86 1015.60 1015.80
1001.63 1001.46 1002.01 1002.10 1002.35 1002.76 1002.33 1002.68 1002.17 1001.61 1001.19 1001.43 1000.67 1000.00 999.53 999.06 999.21 999.35 999.79 1000.71 1001.57 1002.28 1002.96 1004.12 1005.34 1006.56 1007.56 1008.44 1009.35 1010.66 1011.59 1012.70 1013.21 1013.68 1014.71 1014.96 1015.44 1015.72 1015.45 1015.63 1015.93 1015.95 1015.86 1015.40
1001.62 1001.41 1001.21 1001.51 1002.12 1002.38 1002.16 1001.86 1001.72 1001.25 1000.91 1000.29 999.72 999.55 999.13 998.93 998.80 999.00 999.32 1000.14 1001.13 1002.18 1002.96 1003.69 1004.71 1005.88 1006.86 1007.95 1008.97 1009.90 1010.74 1011.45 1012.09 1012.81 1013.58 1013.96 1014.44 1014.96 1015.24 1015.41 1015.61 1015.55 1015.55 1015.85
1001.81 1001.66 1000.91 1001.73 1001.42 1000.67 1001.72 1001.65 1001.55 1001.20 1000.82 999.89 999.24 998.34 998.65 998.80 998.82 999.21 999.21 1000.01 1000.66 1001.81 1002.74 1003.58 1004.41 1005.45 1006.39 1007.36 1008.33 1009.24 1010.18 1010.82 1011.46 1011.47 1012.33 1012.81 1013.33 1014.00 1014.62 1014.83 1015.13 1015.38 1015.42 1015.59
1001.53 1001.04 1000.35 1000.05 1000.02 1000.12 1000.04 1000.02 1000.15 1000.13 999.77 999.85 999.51 998.66 998.22 998.62 998.80 999.27 999.56 1000.18 1001.01 1001.69 1002.57 1003.48 1004.39 1005.25 1006.07 1006.94 1007.73 1008.56 1009.25 1009.81 1010.23 1010.81 1012.11 1012.11 1012.67 1013.25 1013.41 1013.97 1014.27 1014.70 1014.93 1015.16
1001.78 1001.38 1000.19 999.67 999.73 1000.33 999.94 999.91 999.98 999.71 999.40 999.04 998.67 997.66 997.73 998.22 998.77 999.31 999.67 1000.34 1001.39 1002.05 1002.69 1003.37 1004.09 1004.99 1005.90 1006.64 1007.28 1008.21 1008.79 1009.18 1009.62 1010.12 1010.63 1011.36 1011.91 1012.80 1012.62 1012.73 1013.42 1013.83 1014.23 1014.52
1002.85 1001.15 999.97 998.77 998.02 998.90 999.29 999.13 999.01 999.22 998.73 998.35 997.70 997.56 997.30 997.42 997.93 998.50 999.66 1000.43 1001.23 1001.90 1002.78 1003.31 1004.04 1004.86 1005.69 1006.43 1007.10 1007.92 1008.49 1008.90 1009.33 1009.75 1010.17 1010.39 1010.95 1011.37 1011.70 1012.06 1012.61 1013.08 1013.53 1013.86
1002.79 1001.36 1000.62 999.83 999.05 998.69 998.83 998.79 998.41 998.54 998.76 998.30 997.30 996.85 996.82 997.20 997.30 997.74 998.95 1000.17 1001.05 1001.80 1002.38 1003.12 1003.76 1004.58 1005.44 1006.17 1006.87 1007.59 1008.16 1008.70 1009.19 1009.63 1009.99 1010.23 1010.53 1010.97 1011.33 1011.60 1012.08 1012.54 1012.88 1013.08
1002.88 1002.01 1001.36 1000.15 999.67 999.21 998.52 998.45 998.22 997.87 997.95 998.18 997.76 997.00 996.90 996.90 997.58 998.05 998.76 999.90 1000.64 1001.37 1001.99 1002.82 1003.54 1004.33 1005.13 1005.83 1006.58 1007.30 1007.99 1008.62 1009.12 1009.38 1009.74 1010.09 1010.35 1010.71 1011.00 1011.37 1011.71 1012.02 1012.36 1012.65
1004.14 1002.69 1001.78 1000.33 1000.13 999.17 997.89 997.95 997.89 997.47 997.30 997.41 996.91 996.72 996.76 996.70 997.53 997.87 998.56 999.48 1000.26 1000.94 1001.62 1002.27 1002.94 1003.78 1004.56 1005.44 1006.25 1007.00 1007.81 1008.40 1008.96 1009.36 1009.60 1009.88 1010.09 1010.42 1010.68 1011.00 1011.39 1011.64 1012.02 1012.18
1004.52 1003.67 1002.84 1001.27 1000.75 998.35 997.89 998.10 997.63 997.36 997.09 996.76 996.89 997.00 996.57 996.70 996.83 997.62 998.26 998.89 999.72 1000.43 1001.33 1002.19 1002.81 1003.73 1004.61 1005.39 1006.14 1006.83 1007.63 1008.24 1008.72 1009.22 1009.67 1009.99 1010.16 1010.39 1010.60 1010.94 1011.23 1011.55 1011.61 1011.77
1003.93 1004.11 1003.03 1001.88 1000.35 999.02 998.42 998.33 998.24 997.92 997.12 996.64 996.57 997.10 996.91 997.15 997.72 998.03 998.50 998.93 999.27 1000.13 1000.97 1001.79 1002.74 1003.84 1004.73 1005.60 1006.61 1007.24 1007.82 1008.41 1008.93 1009.42 1009.69 1009.99 1010.22 1010.45 1010.67 1010.91 1011.08 1011.22 1011.53 1011.72
1003.29 1003.13 1003.43 1002.12 1000.53 998.76 998.90 998.44 999.41 999.46 997.65 997.60 997.26 996.86 997.19 998.23 997.67 997.73 998.97 999.25 999.35 999.73 1000.72 1001.75 1002.77 1003.84 1004.82 1005.70 1006.46 1007.17 1007.69 1008.22 1008.88 1009.48 1009.89 1010.13 1010.21 1010.39 1010.60 1010.80 1011.08 1011.38 1011.59 1011.77
1002.79 1002.65 1001.78 1002.00 1001.20 999.95 999.71 1000.18 1000.50 999.97 999.22 999.44 999.58 998.84 998.29 998.80 998.87 999.58 999.61 999.54 999.55 999.78 1000.64 1001.90 1002.92 1003.46 1004.51 1005.52 1005.97 1006.62 1007.21 1007.98 1008.78 1009.30 1009.63 1010.12 1010.61 1010.77 1010.79 1010.75 1010.94 1011.13 1011.27 1011.46
1003.04 1002.50 1001.99 1001.95 1001.54 1000.23 1000.49 1000.83 1000.99 1000.88 1001.09 1000.97 1000.97 1001.12 1000.98 1000.83 1000.41 1000.10 999.99 1000.00 999.92 1000.06 1000.84 1001.96 1003.05 1003.58 1004.63 1005.34 1005.85 1006.71 1007.25 1008.19 1008.93 1009.33 1009.70 1010.34 1010.50 1010.51 1010.95 1010.91 1010.93 1010.99 1011.31 1011.70
1003.87 1003.51 1003.30 1002.50 1001.96 1002.26 1002.15 1001.87 1002.02 1002.23 1002.11 1002.01 1001.85 1001.77 1001.85 1001.44 1001.06 1000.78 1000.28 1000.12 1000.03 1000.28 1000.96 1001.86 1002.69 1003.89 1004.65 1005.35 1005.77 1006.56 1007.65 1008.38 1008.88 1009.35 1009.72 1010.03 1010.24 1010.58 1010.77 1010.96 1010.96 1011.16 1011.67 1011.84
1004.45 1004.56 1004.25 1003.70 1002.59 1002.15 1002.86 1002.62 1002.83 1002.90 1002.94 1002.93 1002.46 1002.31 1002.12 1001.91 1001.68 1001.07 1000.50 1000.18 1000.03 1000.41 1001.02 1001.86 1002.73 1003.86 1004.64 1005.49 1006.12 1006.87 1007.88 1008.61 1008.91 1009.41 1009.75 1010.10 1010.38 1010.61 1010.69 1010.73 1010.83 1011.21 1011.63 1012.03
1005.10 1004.88 1004.61 1003.65 1003.20 1002.92 1002.95 1003.12 1003.25 1003.37 1003.64 1003.33 1002.93 1002.57 1002.36 1002.27 1001.95 1001.69 1000.96 1000.65 1000.31 1000.63 1001.34 1002.00 1003.06 1004.19 1005.05 1005.90 1006.28 1007.16 1008.24 1008.74 1009.10 1009.35 1009.64 1009.93 1010.24 1010.61 1011.24 1011.86 1012.22 1012.27 1012.66 1013.00
1005.41 1004.95 1004.64 1003.47 1003.42 1003.08 1002.84 1003.04 1003.41 1003.47 1003.44 1003.14 1003.12 1002.93 1002.66 1002.44 1002.16 1001.87 1001.28 1001.04 1000.98 1001.02 1001.56 1002.21 1003.22 1004.16 1005.05 1005.66 1006.21 1007.08 1008.20 1008.63 1009.00 1009.28 1009.48 1009.57 1009.96 1010.57 1011.11 1011.64 1012.78 1013.51 1013.61 1013.63
Thickness
5788 5774 5770 5786 5793 5789 5778 5769 5767 5780 5780 5770 5773 5776 5784 5788 5782 5779 5778 5777 5780 5782 5788 5788 5783 5781 5776 5771 5765 5760 5756 5754 5752 5751 5749 5748 5749 5749 5746 5749 5749 5749 5752 5751
5776 5767 5792 5797 5788 5777 5776 5768 5771 5781 5776 5771 5779 5777 5793 5793 5788 5787 5784 5783 5773 5786 5787 5787 5784 5782 5779 5774 5768 5762 5758 5755 5754 5753 5752 5754 5753 5754 5753 5752 5751 5751 5752 5751
5773 5787 5795 5784 5777 5768 5774 5770 5770 5768 5779 5779 5774 5784 5792 5801 5798 5793 5794 5792 5791 5788 5789 5786 5785 5784 5782 5776 5771 5765 5761 5757 5756 5756 5752 5750 5751 5752 5751 5753 5753 5753 5752 5753
5779 5795 5780 5776 5772 5777 5765 5788 5776 5771 5765 5764 5781 5761 5793 5800 5795 5794 5796 5796 5796 5794 5795 5795 5790 5787 5785 5781 5777 5770 5763 5759 5757 5755 5753 5752 5752 5751 5757 5757 5759 5759 5754 5753
5775 5779 5775 5769 5775 5784 5772 5781 5776 5775 5770 5773 5782 5767 5793 5802 5794 5802 5805 5804 5804 5800 5799 5798 5795 5792 5790 5787 5779 5774 5766 5761 5760 5755 5755 5753 5752 5759 5762 5762 5761 5755 5754 5754
5779 5792 5782 5785 5791 5786 5787 5773 5773 5774 5776 5755 5790 5772 5785 5802 5803 5811 5817 5816 5811 5806 5804 5803 5802 5798 5792 5790 5784 5777 5767 5763 5762 5757 5753 5752 5753 5757 5761 5759 5759 5761 5759 5756
5775 5779 5788 5791 5776 5783 5774 5770 5752 5752 5761 5763 5784 5768 5788 5810 5819 5820 5818 5819 5818 5814 5807 5803 5800 5798 5795 5790 5783 5778 5770 5765 5764 5761 5757 5753 5752 5753 5754 5754 5757 5766 5766 5763
5765 5767 5786 5794 5782 5776 5770 5774 5765 5739 5755 5773 5778 5759 5789 5820 5828 5829 5827 5824 5823 5819 5817 5809 5803 5799 5797 5791 5786 5781 5773 5769 5763 5764 5761 5758 5755 5756 5757 5759 5764 5765 5769 5770
5767 5767 5794 5796 5795 5787 5775 5759 5791 5773 5786 5758 5779 5794 5812 5825 5822 5828 5828 5823 5818 5819 5818 5811 5805 5801 5797 5793 5790 5782 5778 5771 5769 5766 5759 5761 5758 5757 5760 5762 5762 5764 5766 5772
5783 5758 5790 5791 5793 5789 5780 5795 5764 5776 5738 5739 5774 5773 5776 5800 5810 5821 5823 5821 5819 5816 5814 5813 5809 5803 5802 5797 5792 5787 5784 5778 5774 5769 5764 5767 5765 5762 5761 5761 5761 5763 5766 5765
5787 5773 5778 5779 5772 5779 5772 5767 5773 5778 5773 5756 5756 5780 5811 5806 5813 5812 5823 5822 5823 5816 5812 5809 5807 5806 5803 5800 5795 5790 5785 5782 5776 5779 5775 5773 5771 5767 5763 5763 5762 5762 5763 5764
5789 5780 5765 5779 5802 5806 5798 5789 5789 5764 5766 5774 5768 5772 5823 5817 5818 5818 5819 5819 5819 5817 5813 5809 5804 5801 5799 5796 5794 5791 5790 5787 5786 5784 5774 5776 5774 5770 5769 5766 5765 5764 5763 5765
5781 5765 5757 5767 5785 5787 5778 5788 5790 5794 5795 5771 5764 5784 5828 5822 5816 5817 5815 5815 5811 5810 5808 5806 5803 5798 5795 5795 5794 5790 5789 5788 5787 5784 5782 5778 5775 5769 5772 5773 5769 5767 5765 5765
5767 5772 5769 5768 5788 5784 5768 5782 5793 5787 5774 5779 5788 5792 5812 5818 5814 5820 5814 5814 5812 5809 5804 5803 5800 5796 5794 5793 5791 5787 5786 5788 5786 5784 5782 5782 5778 5777 5776 5775 5773 5770 5766 5765
5758 5747 5765 5774 5785 5787 5779 5779 5789 5778 5780 5769 5793 5799 5812 5816 5821 5824 5821 5814 5809 5805 5804 5801 5799 5795 5792 5789 5788 5787 5786 5785 5784 5780 5779 5780 5780 5778 5776 5775 5772 5770 5768 5767
5752 5733 5750 5748 5768 5773 5767 5778 5781 5787 5785 5779 5786 5789 5821 5828 5823 5818 5816 5810 5806 5805 5805 5802 5800 5797 5793 5791 5788 5786 5784 5781 5781 5780 5779 5779 5778 5776 5774 5772 5769 5768 5766 5764
5715 5728 5729 5725 5753 5758 5746 5768 5773 5783 5793 5787 5773 5798 5817 5815 5810 5814 5813 5811 5807 5806 5806 5806 5804 5800 5797 5792 5789 5785 5783 5783 5779 5778 5778 5778 5777 5773 5772 5771 5768 5765 5762 5761
5698 5704 5713 5714 5728 5709 5761 5784 5784 5777 5787 5799 5796 5800 5811 5815 5823 5822 5822 5816 5811 5810 5806 5804 5804 5800 5796 5794 5790 5787 5783 5780 5777 5774 5773 5772 5772 5770 5770 5766 5764 5761 5761 5759
5705 5691 5691 5692 5705 5732 5747 5758 5756 5759 5767 5798 5797 5797 5807 5811 5810 5808 5816 5818 5816 5812 5810 5808 5806 5798 5793 5788 5783 5779 5775 5772 5770 5767 5767 5768 5767 5766 5764 5761 5761 5760 5757 5754
5697 5697 5678 5686 5684 5692 5734 5762 5752 5753 5738 5786 5789 5800 5798 5794 5784 5803 5806 5810 5813 5815 5811 5805 5801 5794 5788 5784 5780 5774 5770 5768 5763 5761 5760 5762 5763 5763 5761 5759 5757 5755 5753 5750
5668 5674 5672 5672 5670 5698 5730 5730 5732 5709 5737 5757 5761 5774 5785 5779 5787 5788 5799 5802 5808 5810 5806 5802 5796 5791 5786 5782 5780 5773 5770 5765 5763 5762 5761 5757 5754 5753 5754 5755 5755 5753 5751 5749
5655 5657 5663 5670 5661 5663 5722 5709 5698 5719 5727 5737 5741 5746 5751 5761 5773 5782 5789 5791 5795 5797 5797 5794 5787 5786 5782 5780 5775 5767 5764 5762 5758 5757 5754 5748 5749 5751 5748 5749 5750 5750 5745 5741
5634 5647 5640 5659 5667 5673 5683 5687 5695 5706 5710 5719 5728 5738 5742 5750 5760 5770 5778 5784 5789 5790 5789 5789 5785 5777 5776 5774 5772 5763 5757 5755 5753 5751 5748 5747 5746 5745 5745 5743 5743 5741 5737 5735
5634 5639 5628 5636 5660 5665 5662 5673 5678 5688 5694 5703 5718 5726 5735 5739 5748 5760 5771 5778 5782 5784 5782 5782 5779 5770 5766 5765 5763 5758 5751 5747 5746 5742 5741 5740 5738 5738 5739 5740 5739 5737 5733 5729
5623 5621 5617 5627 5641 5649 5654 5656 5661 5669 5677 5689 5702 5713 5722 5729 5736 5745 5758 5766 5774 5776 5775 5774 5768 5760 5756 5753 5753 5750 5741 5738 5735 5736 5735 5734 5733 5731 5726 5723 5722 5723 5717 5714
5612 5609 5605 5614 5630 5633 5639 5647 5651 5654 5662 5676 5685 5694 5708 5718 5725 5737 5747 5756 5761 5765 5767 5764 5759 5756 5751 5751 5749 5745 5737 5733 5730 5728 5728 5730 5728 5724 5720 5719 5711 5699 5698 5696